Location: Grand Moustoir
(47.8355°N, 3.3120°W)
Time: 06:51:50
(UTC+00:00)

ADEOS Rocket - Pass Details

Date: 20 January 2020
Orbit: 859 x 1306 km, 98.7° (Epoch: 24 February)

Event Time Altitude Azimuth Distance (km) Brightness Sun altitude
Rises 06:22:29 0° 167° (SSE) 3,435 6.2 -15.1°
Reaches altitude 10° 06:24:50 10° 168° (SSE) 2,492 5.5 -14.7°
Maximum altitude 06:30:18 80° 256° (WSW) 885 2.7 -13.8°
Drops below altitude 10° 06:35:59 10° 344° (NNW) 2,580 4.9 -12.9°
Sets 06:38:27 0° 345° (NNW) 3,566 5.6 -12.5°
